[[{"header":{"parameterUnit":"m.s-1","parameterCategory":1,"la1":30.2991,"la2":30.254,"lo1":-89.0895,"lo2":-89.0444,"dy":0.0017,"dx":0.0017,"nx":28,"ny":28,"refTime":"2023-10-25T21:00:00:Z","depth":0,"parameterNumber":2,"parameterNumberName":"U-component_of_WINDS"},"data":[0,0,0,0,0,0,0,0,0,0,0,0,0,0,0,0,0,0,0,0,0,0,0,0,0,0,0,0,0,0,0,0,0,0,0,0,0,0,0,0,0,0,0,0,0,0,0,0,0,0,0,0,0,0,0,0,0,0,-3.5545,-3.5546,0,-3.5611,-3.5612,-3.5613,-3.5565,-3.5563,-3.5561,-3.5559,-3.5625,-3.5629,-3.5633,0,0,0,0,0,0,0,0,0,0,0,0,0,-3.5379,-3.5382,-3.5545,-3.5546,-3.5547,-3.5611,-3.5612,-3.5613,-3.5566,-3.5563,-3.5561,-3.5558,-3.5624,-3.5628,-3.5633,0,0,0,0,0,0,0,0,0,0,0,0,0,-3.5449,-3.5384,-3.5545,-3.5531,-3.5531,-3.5611,-3.5612,-3.5613,-3.5566,-3.5563,-3.556,-3.5557,-3.5623,-3.5628,-3.5634,-3.5731,0,0,-3.5651,-3.5653,0,0,0,0,0,0,0,0,-3.5445,-3.5455,-3.5532,-3.5532,-3.5532,-3.5577,-3.5577,-3.5652,-3.5567,-3.5553,-3.5559,-3.5556,-3.5612,-3.5618,-3.5637,-3.5734,-3.5737,-3.5651,-3.5654,-3.5657,-3.5658,0,0,0,0,0,0,0,-3.544,-3.5452,-3.5571,-3.5534,-3.5533,-3.5522,-3.5528,-3.5591,-3.5599,-3.5554,-3.555,-3.5559,-3.5611,-3.5632,-3.5638,-3.5737,-3.5651,-3.5656,-3.5659,-3.5661,-3.5918,-3.5921,0,0,0,0,0,0,-3.5437,-3.5448,-3.5569,-3.5573,-3.548,-3.5527,-3.5535,-3.5566,-3.5598,-3.56,-3.5562,-3.5557,-3.5624,-3.5632,-3.564,-3.5756,-3.5657,-3.5662,-3.5665,-3.5915,-3.5919,-3.5923,0,0,0,0,0,0,-3.5433,-3.5448,-3.5566,-3.551,-3.5524,-3.5534,-3.5569,-3.5568,-3.5589,-3.5604,-3.5605,-3.5582,-3.5622,-3.5633,-3.5709,-3.5757,-3.5664,-3.567,-3.5911,-3.5916,-3.5921,-3.5988,0,0,0,0,0,0,-3.5429,-3.5447,-3.5483,-3.5511,-3.5527,-3.5634,-3.5572,-3.5572,-3.5599,-3.5593,-3.5623,-3.5625,-3.562,-3.5701,-3.5714,-3.5763,-3.5674,-3.5906,-3.5913,-3.5919,-3.5981,-3.5994,-3.6006,0,0,0,0,0,-3.5423,-3.5499,-3.5486,-3.55,-3.5573,-3.5637,-3.5646,-3.5639,-3.5603,-3.564,-3.565,-3.5624,-3.5751,-3.5709,-3.5724,-3.5775,-3.5903,-3.5911,-3.5919,-3.5975,-3.5992,-3.6006,0,0,0,0,0,0,-3.5476,-3.5502,-3.5487,-3.5575,-3.5604,-3.5628,-3.5674,-3.5656,-3.5695,-3.5688,-3.5678,-3.5685,-3.5765,-3.5778,-3.5731,-3.5872,-3.5821,-3.5832,-3.5859,-3.5875,-3.5887,-3.5881,-3.5678,0,0,0,0,0,-3.5498,-3.5547,-3.5568,-3.5643,-3.5659,-3.5665,-3.5692,-3.5685,-3.5714,-3.5725,-3.5741,-3.577,-3.5816,-3.5847,-3.5891,-3.5984,-3.599,-3.6027,-3.604,-3.605,-3.6059,-3.6109,-3.6126,-3.5948,-3.5948,-3.5948,0,0,-3.5544,-3.5564,-3.5596,-3.5655,-3.5676,-3.5727,-3.5675,-3.5731,-3.5769,-3.5734,-3.5806,-3.5819,-3.5851,-3.5937,-3.5975,-3.595,-3.611,-3.606,-3.6068,-3.6071,-3.6119,-3.6136,-3.6151,-3.5954,-3.5953,-3.5952,0,0,-3.5652,-3.5674,-3.5738,-3.5762,-3.5796,-3.5799,-3.5816,-3.5844,-3.5851,-3.5924,-3.5899,-3.5945,-3.6025,-3.6049,-3.6071,-3.6193,-3.617,-3.6208,-3.6272,-3.6321,-3.6335,-3.6347,-3.639,-3.6405,-3.6217,-3.6218,-3.6218,0,-3.5704,-3.578,-3.5774,-3.5832,-3.5859,-3.5832,-3.5898,-3.5921,-3.5967,-3.5986,-3.5958,-3.6059,-3.6079,-3.6169,-3.62,-3.622,-3.6237,-3.6203,-3.6334,-3.6346,-3.6357,-3.6398,-3.6414,-3.6222,-3.6221,-3.6221,-3.6221,0,-3.5842,-3.5895,-3.5944,-3.599,-3.6023,-3.6085,-3.6088,-3.6122,-3.6113,-3.6121,-3.6196,-3.622,-3.6268,-3.6289,-3.6281,-3.638,-3.6363,-3.6335,-3.6283,-3.6379,-3.6416,-3.6432,-3.6228,-3.6226,-3.6225,-3.6224,0,0,-3.5981,-3.6026,-3.6044,-3.6065,-3.6102,-3.6143,-3.6205,-3.6253,-3.6281,-3.6316,-3.6366,-3.6437,-3.6412,-3.6438,-3.6432,-3.6476,-3.657,-3.6443,-3.6443,-3.6464,-3.668,-3.6699,-3.6717,-3.6557,-3.656,-3.6563,-3.6677,0,-3.609,-3.6197,-3.6195,-3.6294,-3.6344,-3.6321,-3.6374,-3.6403,-3.6413,-3.6456,-3.6466,-3.6516,-3.648,-3.6495,-3.6538,-3.655,-3.6613,-3.6542,-3.6603,-3.6605,-3.6593,-3.6736,-3.6756,-3.6862,-3.6691,-3.6694,-3.6696,0,-3.6231,-3.627,-3.6375,-3.6406,-3.6427,-3.6475,-3.6519,-3.6562,-3.6594,-3.6598,-3.6629,-3.6618,-3.668,-3.663,-3.6717,-3.6669,-3.6694,-3.6704,-3.6708,-3.6711,-3.6654,-3.6741,-3.6896,-3.6911,-3.6719,-3.6717,-3.6715,0,-3.632,-3.64,-3.6473,-3.6492,-3.653,-3.6565,-3.6582,-3.6613,-3.6642,-3.6682,-3.6701,-3.6747,-3.6772,-3.6808,-3.681,-3.6773,-3.6897,-3.6847,-3.6901,-3.6901,-3.6925,-3.6923,-3.7084,-3.6947,-3.6946,-3.6946,-3.6946,0,-3.644,-3.6504,-3.6513,-3.6558,-3.663,-3.6628,-3.6699,-3.6714,-3.6741,-3.6788,-3.6772,-3.6817,-3.6817,-3.6863,-3.6865,-3.6936,-3.6948,-3.6953,-3.6952,-3.6952,-3.6952,-3.6966,-3.6958,-3.695,-3.6949,-3.6949,-3.6948,0,-3.655,-3.6559,-3.6636,-3.6668,-3.6677,-3.6729,-3.6755,-3.6798,-3.6808,-3.6868,-3.6882,-3.6896,-3.695,-3.6956,-3.7018,-3.7019,-3.7105,-3.7097,-3.7093,-3.7091,-3.7144,-3.7138,-3.7318,-3.7341,-3.7191,-3.7192,-3.7194,0,-3.6624,-3.6673,-3.6711,-3.6742,-3.6761,-3.6811,-3.6842,-3.6843,-3.6876,-3.6919,-3.6956,-3.7008,-3.7049,-3.7136,-3.7152,-3.72,-3.7192,-3.7252,-3.7199,-3.7198,-3.7191,-3.7187,-3.7191,-3.7261,-3.7263,-3.7264,-3.7265,0,-3.6755,-3.6758,-3.6802,-3.685,-3.6887,-3.6924,-3.6959,-3.6985,-3.6991,-3.7029,-3.7084,-3.7116,-3.7181,-3.7232,-3.728,-3.7298,-3.7283,-3.7283,-3.7297,-3.7297,-3.7292,-3.7294,-3.7118,-3.7278,-3.7276,-3.7275,-3.7275,-3.7274,-3.6848,-3.6891,-3.6924,-3.6975,-3.7002,-3.7036,-3.7077,-3.7093,-3.7139,-3.7191,-3.719,-3.7251,-3.7284,-3.7347,-3.737,-3.7417,-3.7397,-3.7419,-3.7424,-3.7428,-3.7433,-3.7287,-3.7426,-3.7426,-3.7425,-3.7425,-3.7425,0,-3.6976,-3.6997,-3.7044,-3.7094,-3.7135,-3.7119,-3.7158,-3.7192,-3.7246,-3.7279,-3.7321,-3.7385,-3.7436,-3.7457,-3.7507,-3.7541,-3.7535,-3.7554,-3.755,-3.7554,-3.7448,-3.743,-3.7558,-3.7558,-3.7558,-3.7558,-3.7558,-3.7558,-3.7047,-3.7118,-3.7126,-3.7211,-3.7232,-3.7291,-3.7314,-3.7346,-3.7372,-3.7444,-3.7487,-3.7501,-3.753,-3.7583,-3.7629,-3.7634,-3.7652,-3.7674,-3.7676,-3.7575,-3.7562,-3.7549,-3.7531,-3.7679,-3.7679,-3.7778,-3.7778,-3.7779]},{"header":{"parameterUnit":"m.s-1","parameterCategory":1,"la1":30.2991,"la2":30.254,"lo1":-89.0895,"lo2":-89.0444,"dy":0.0017,"dx":0.0017,"nx":28,"ny":28,"refTime":"2023-10-25T21:00:00:Z","depth":0,"parameterNumber":3,"parameterNumberName":"V-component_of_WINDS"},"data":[0,0,0,0,0,0,0,0,0,0,0,0,0,0,0,0,0,0,0,0,0,0,0,0,0,0,0,0,0,0,0,0,0,0,0,0,0,0,0,0,0,0,0,0,0,0,0,0,0,0,0,0,0,0,0,0,0,0,1.5471,1.5472,0,1.5551,1.5552,1.5553,1.5527,1.5525,1.5524,1.5522,1.5604,1.5608,1.5612,0,0,0,0,0,0,0,0,0,0,0,0,0,1.5299,1.5303,1.5471,1.5472,1.5473,1.5551,1.5552,1.5553,1.5527,1.5525,1.5523,1.5521,1.5603,1.5607,1.5612,0,0,0,0,0,0,0,0,0,0,0,0,0,1.5376,1.5304,1.5471,1.547,1.547,1.5551,1.5552,1.5553,1.5528,1.5525,1.5523,1.552,1.5601,1.5607,1.5613,1.5699,0,0,1.563,1.5632,0,0,0,0,0,0,0,0,1.5372,1.5382,1.5469,1.547,1.5471,1.5526,1.5521,1.5602,1.5528,1.5506,1.5522,1.5519,1.558,1.5588,1.5608,1.5703,1.5706,1.563,1.5634,1.5636,1.5638,0,0,0,0,0,0,0,1.5367,1.5379,1.5503,1.547,1.5471,1.5466,1.5474,1.5537,1.5557,1.5508,1.5506,1.5516,1.558,1.5603,1.561,1.5708,1.563,1.5635,1.5639,1.5641,1.5881,1.5884,0,0,0,0,0,0,1.536,1.5375,1.55,1.5505,1.5414,1.5471,1.548,1.5511,1.5556,1.556,1.5518,1.5514,1.5594,1.5603,1.5613,1.5719,1.5636,1.5642,1.5645,1.5878,1.5882,1.5885,0,0,0,0,0,0,1.5357,1.5372,1.5497,1.544,1.5455,1.5477,1.5512,1.5514,1.5536,1.5564,1.5567,1.5537,1.5593,1.5605,1.5679,1.5722,1.5644,1.5649,1.5875,1.5879,1.5883,1.5932,0,0,0,0,0,0,1.5352,1.5371,1.5403,1.544,1.5458,1.5561,1.5514,1.5517,1.5546,1.5542,1.5582,1.5587,1.5592,1.567,1.5684,1.5728,1.5654,1.5871,1.5877,1.5882,1.5926,1.5937,1.5947,0,0,0,0,0,1.5346,1.5412,1.5404,1.542,1.5499,1.5563,1.5573,1.5578,1.555,1.5583,1.5601,1.5585,1.5715,1.5678,1.5694,1.574,1.5868,1.5875,1.5881,1.5922,1.5935,1.5946,0,0,0,0,0,0,1.5379,1.5417,1.5409,1.5489,1.5523,1.5559,1.56,1.5591,1.5633,1.5628,1.5632,1.5641,1.5718,1.5736,1.5694,1.5828,1.5788,1.5798,1.5813,1.5826,1.5836,1.583,1.5658,0,0,0,0,0,1.5395,1.5444,1.5475,1.5543,1.5561,1.5578,1.5606,1.5607,1.5642,1.5656,1.5679,1.5715,1.5764,1.5795,1.5842,1.5929,1.5939,1.5969,1.5979,1.5987,1.5996,1.6047,1.6061,1.5907,1.5907,1.5907,0,0,1.543,1.5457,1.5487,1.5551,1.5577,1.5628,1.559,1.5645,1.5684,1.5664,1.5736,1.5755,1.5795,1.5876,1.5914,1.5894,1.6041,1.5996,1.6002,1.6006,1.6055,1.607,1.6083,1.5911,1.5911,1.591,0,0,1.552,1.5544,1.5605,1.5633,1.5674,1.5685,1.57,1.5738,1.575,1.5822,1.581,1.5856,1.5939,1.5969,1.5995,1.6101,1.6089,1.6116,1.6169,1.6218,1.623,1.6241,1.6281,1.6295,1.6124,1.6125,1.6125,0,1.5558,1.5634,1.5638,1.5695,1.5725,1.5711,1.5774,1.58,1.5854,1.5875,1.5853,1.596,1.5985,1.6075,1.6102,1.6122,1.6141,1.6111,1.6228,1.6239,1.6249,1.6287,1.6302,1.6128,1.6127,1.6127,1.6127,0,1.568,1.5734,1.5778,1.5832,1.5866,1.5926,1.594,1.5975,1.5973,1.5988,1.6063,1.6094,1.6148,1.6169,1.6168,1.626,1.6247,1.6227,1.6186,1.6267,1.6303,1.6317,1.6132,1.6131,1.613,1.6129,0,0,1.5791,1.5848,1.5865,1.589,1.5936,1.5978,1.6038,1.6091,1.6122,1.616,1.6213,1.6285,1.6268,1.6297,1.6299,1.6343,1.6428,1.6317,1.6318,1.6338,1.6535,1.6551,1.6568,1.642,1.6423,1.6425,1.6532,0,1.5886,1.5992,1.5999,1.6095,1.6146,1.6135,1.6189,1.6223,1.6239,1.6286,1.6303,1.6356,1.6327,1.6345,1.6388,1.6408,1.6467,1.64,1.647,1.6473,1.6462,1.6586,1.6603,1.6702,1.6546,1.6548,1.655,0,1.601,1.6054,1.6156,1.6198,1.6219,1.6267,1.6318,1.6362,1.6402,1.6411,1.6446,1.6443,1.6507,1.6465,1.6555,1.6509,1.6538,1.6553,1.6557,1.6565,1.6517,1.6598,1.6733,1.6749,1.6572,1.657,1.6568,0,1.6084,1.6168,1.6241,1.6263,1.6312,1.6347,1.6369,1.6407,1.6439,1.6484,1.6506,1.6557,1.6586,1.6627,1.6639,1.6607,1.673,1.6687,1.674,1.674,1.6767,1.6765,1.691,1.6784,1.6783,1.6783,1.6783,0,1.619,1.6253,1.6275,1.632,1.6391,1.6399,1.647,1.6491,1.6525,1.6575,1.6568,1.6616,1.6628,1.6678,1.6688,1.6762,1.6775,1.6785,1.6787,1.6786,1.6785,1.6806,1.68,1.6787,1.6786,1.6785,1.6785,0,1.6284,1.63,1.6379,1.6421,1.6433,1.6484,1.652,1.6564,1.658,1.6644,1.6659,1.6685,1.6744,1.676,1.683,1.6837,1.6925,1.692,1.6912,1.6912,1.6965,1.696,1.7129,1.7153,1.7009,1.7011,1.7012,0,1.6351,1.64,1.6447,1.648,1.6504,1.6557,1.6591,1.6602,1.6638,1.669,1.6728,1.6786,1.6834,1.6929,1.6954,1.7009,1.7006,1.7061,1.7014,1.7013,1.7009,1.7007,1.7013,1.7071,1.7072,1.7073,1.7074,0,1.6469,1.6476,1.6524,1.6578,1.6619,1.6661,1.6701,1.6729,1.6746,1.6787,1.6848,1.6884,1.6958,1.7016,1.7072,1.7096,1.709,1.7089,1.7105,1.7105,1.7099,1.7105,1.6938,1.7085,1.7084,1.7083,1.7083,1.7082,1.6553,1.6597,1.6638,1.6694,1.6726,1.6765,1.6809,1.6832,1.6882,1.6943,1.6946,1.7013,1.7055,1.713,1.7157,1.7211,1.7194,1.7216,1.7222,1.7227,1.7233,1.709,1.722,1.722,1.722,1.722,1.7219,0,1.6672,1.6699,1.675,1.6808,1.6853,1.6842,1.6887,1.6926,1.6984,1.7024,1.7072,1.7143,1.7201,1.7232,1.729,1.7327,1.7326,1.7342,1.734,1.7347,1.7243,1.7225,1.7343,1.7343,1.7343,1.7343,1.7343,1.7343,1.674,1.6815,1.6827,1.6919,1.6945,1.701,1.7038,1.7074,1.7107,1.7187,1.7235,1.7255,1.7293,1.7354,1.7407,1.7415,1.7438,1.7457,1.7463,1.7366,1.7353,1.7341,1.7324,1.7461,1.7461,1.7562,1.7563,1.7564]}]]